"datetime","# probes","# resolvers","can_ipv6","can_ipv6_prbs","can_tcp","can_tcp_prbs","can_tcp6","can_tcp6_prbs","does_ecs","does_ecs_prbs","does_flagday","does_flagday_prbs","does_rov4","does_rov4_prbs","does_rov6","does_rov6_prbs","does_qnamemin","doesnt_qnamemin","does_qnamemin_prbs","doesnt_qnamemin_prbs","does_nxdomain","doesnt_nxdomain","does_nxdomain_prbs","doesnt_nxdomain_prbs","has_ta_19036","hasnt_ta_19036","has_ta_19036_prbs","hasnt_ta_19036_prbs","has_ta_20326","hasnt_ta_20326","has_ta_20326_prbs","hasnt_ta_20326_prbs","can_rsamd5","cannot_rsamd5","broken_rsamd5","can_rsamd5_prbs","cannot_rsamd5_prbs","broken_rsamd5_prbs","can_dsa","cannot_dsa","broken_dsa","can_dsa_prbs","cannot_dsa_prbs","broken_dsa_prbs","can_rsasha1","cannot_rsasha1","broken_rsasha1","can_rsasha1_prbs","cannot_rsasha1_prbs","broken_rsasha1_prbs","can_dsansec3","cannot_dsansec3","broken_dsansec3","can_dsansec3_prbs","cannot_dsansec3_prbs","broken_dsansec3_prbs","can_rsansec3","cannot_rsansec3","broken_rsansec3","can_rsansec3_prbs","cannot_rsansec3_prbs","broken_rsansec3_prbs","can_rsasha256","cannot_rsasha256","broken_rsasha256","can_rsasha256_prbs","cannot_rsasha256_prbs","broken_rsasha256_prbs","can_rsasha512","cannot_rsasha512","broken_rsasha512","can_rsasha512_prbs","cannot_rsasha512_prbs","broken_rsasha512_prbs","can_eccgost","cannot_eccgost","broken_eccgost","can_eccgost_prbs","cannot_eccgost_prbs","broken_eccgost_prbs","can_ecdsa256","cannot_ecdsa256","broken_ecdsa256","can_ecdsa256_prbs","cannot_ecdsa256_prbs","broken_ecdsa256_prbs","can_ecdsa384","cannot_ecdsa384","broken_ecdsa384","can_ecdsa384_prbs","cannot_ecdsa384_prbs","broken_ecdsa384_prbs","can_ed25519","cannot_ed25519","broken_ed25519","can_ed25519_prbs","cannot_ed25519_prbs","broken_ed25519_prbs","can_ed448","cannot_ed448","broken_ed448","can_ed448_prbs","cannot_ed448_prbs","broken_ed448_prbs","can_gost","cannot_gost","broken_gost","can_gost_prbs","cannot_gost_prbs","broken_gost_prbs","can_sha384","cannot_sha384","broken_sha384","can_sha384_prbs","cannot_sha384_prbs","broken_sha384_prbs","is_internal","is_forwarding","is_external","is_internal_prbs","is_forwarding_prbs","is_external_prbs"
2017-06-20T23:59:58Z,108,170,155,100,168,107,152,97,92,63,0,0,0,0,0,0,2,168,1,107,0,168,0,107,0,0,0,0,0,0,0,0,41,41,88,31,44,57,77,93,0,54,69,0,166,4,0,106,22,0,78,92,0,55,68,0,167,3,0,106,22,0,167,3,0,106,21,0,167,3,0,106,22,0,42,127,1,29,89,1,170,0,0,108,21,0,170,0,0,108,22,0,0,169,1,0,107,1,0,167,3,0,106,2,130,38,2,81,46,2,169,1,0,107,22,0,60,31,79,53,29,49
2017-06-21T23:59:59Z,109,174,158,101,172,108,154,98,94,64,0,0,0,0,0,0,2,172,1,108,0,172,0,108,0,0,0,0,0,0,0,0,43,43,88,32,45,57,80,93,1,55,69,1,173,1,0,108,21,0,82,91,1,57,67,1,173,1,0,108,21,0,172,2,0,108,22,0,173,1,0,108,21,0,43,130,1,29,90,1,173,1,0,108,23,0,174,0,0,109,22,0,0,173,1,0,108,1,0,172,2,0,108,2,131,41,2,81,48,2,172,2,0,108,24,0,64,31,79,54,29,50
2017-06-22T23:59:58Z,109,173,159,102,171,108,155,98,92,61,0,0,0,0,0,0,2,171,1,108,0,171,0,108,0,0,0,0,0,0,0,0,41,45,87,30,46,56,80,92,1,56,68,1,172,1,0,108,21,0,82,91,0,58,66,0,173,0,0,109,20,0,173,0,0,109,20,0,173,0,0,109,20,0,42,129,2,30,89,2,172,1,0,109,23,0,173,0,0,109,22,0,0,172,1,0,108,1,0,172,1,0,108,1,132,39,2,82,47,2,172,1,0,109,23,0,64,30,79,56,28,49
2017-06-23T23:59:59Z,108,172,158,101,168,107,154,97,91,61,0,0,0,0,0,0,2,170,1,107,0,170,0,107,0,0,0,0,0,0,0,0,42,42,88,31,45,57,82,90,0,57,66,0,172,0,0,108,20,0,82,90,0,58,65,0,171,1,0,108,21,0,172,0,0,108,20,0,172,0,0,108,20,0,44,127,1,30,88,1,171,1,0,108,23,0,172,0,0,108,22,0,0,170,2,0,107,2,0,171,1,0,107,1,131,39,2,81,47,2,172,0,0,108,22,0,63,30,79,55,29,49
2017-06-24T23:59:59Z,107,169,156,101,167,106,152,97,89,61,0,0,0,0,0,0,0,169,0,107,0,167,0,106,0,0,0,0,0,0,0,0,41,42,86,30,43,56,79,90,0,55,67,0,168,1,0,106,20,0,83,86,0,58,64,0,167,2,0,106,21,0,168,1,0,106,20,0,169,0,0,107,19,0,44,124,1,30,87,1,168,1,0,106,22,0,169,0,0,107,21,0,0,166,3,0,105,2,1,167,1,1,106,1,129,37,3,81,45,3,167,2,0,106,23,0,62,30,77,54,28,48
2017-06-25T23:59:59Z,109,173,160,103,171,108,156,99,92,62,0,0,0,0,0,0,2,171,1,108,0,171,0,108,0,0,0,0,0,0,0,0,45,41,87,34,43,56,83,89,1,58,66,1,172,1,0,108,20,0,84,89,0,58,66,0,172,1,0,108,20,0,172,1,0,108,20,0,171,2,0,108,21,0,44,126,3,30,88,2,173,0,0,109,21,0,173,0,0,109,21,0,1,169,3,1,107,2,0,170,3,0,107,2,130,39,4,81,46,3,171,2,0,108,23,0,66,30,77,57,27,48
2017-06-26T23:59:59Z,111,176,162,104,173,110,156,99,93,62,0,0,0,0,0,0,2,174,1,110,0,176,0,111,0,0,0,0,0,0,0,0,42,45,89,31,47,57,85,91,0,59,68,0,174,2,0,110,23,0,87,89,0,61,66,0,176,0,0,111,21,0,175,1,0,111,22,0,176,0,0,111,21,0,43,129,4,31,89,3,176,0,0,111,23,0,176,0,0,111,23,0,0,173,3,0,109,2,0,172,4,0,109,3,132,40,4,82,48,3,175,1,0,111,24,0,66,31,79,57,28,49
2017-06-27T23:59:58Z,115,183,168,108,181,114,161,103,98,64,0,0,0,0,0,0,2,181,1,114,0,181,0,114,0,0,0,0,0,0,0,0,48,45,90,36,50,57,87,95,1,62,70,1,181,2,0,114,23,0,90,93,0,63,69,0,180,3,0,114,24,0,179,4,0,113,25,0,180,3,0,113,24,0,45,134,4,32,93,3,183,0,0,115,24,0,183,0,0,115,24,0,0,180,3,0,113,2,0,180,3,0,113,2,134,45,4,83,52,3,179,4,0,113,26,0,70,33,80,60,31,49
2017-06-28T23:59:58Z,116,182,167,109,180,115,162,104,100,68,0,0,0,0,0,0,2,180,1,115,0,180,0,115,0,0,0,0,0,0,0,0,44,46,92,33,50,59,85,96,1,61,72,1,179,3,0,113,25,0,84,96,2,60,72,1,179,3,0,114,25,0,178,4,0,113,25,0,180,2,0,115,24,0,45,133,4,32,94,3,181,1,0,115,25,0,182,0,0,116,24,0,0,178,4,0,114,3,0,179,3,0,114,2,135,43,4,85,52,3,180,2,0,115,26,0,70,31,81,61,31,50
2017-06-29T23:59:59Z,115,181,166,108,179,114,161,104,98,67,0,0,0,0,0,0,2,179,1,114,0,181,0,115,0,0,0,0,0,0,0,0,45,41,95,34,49,62,84,97,0,59,74,0,180,1,0,114,24,0,85,96,0,60,73,0,180,1,0,114,23,0,178,3,0,113,24,1,180,1,0,114,23,0,44,133,4,31,95,3,180,1,0,115,26,0,181,0,0,115,25,0,0,176,5,0,112,3,0,177,4,0,113,3,138,39,4,86,50,3,180,1,0,114,26,0,65,33,83,57,32,52
2017-06-30T23:59:58Z,113,176,162,106,174,112,154,101,98,66,0,0,0,0,0,0,2,174,1,112,0,174,0,112,0,0,0,0,0,0,0,0,44,38,94,34,47,61,81,95,0,57,72,0,175,1,0,112,24,0,82,94,0,58,71,0,176,0,0,113,22,0,173,2,1,111,23,2,176,0,0,113,22,0,44,129,3,30,93,2,176,0,0,113,25,0,176,0,0,113,25,0,0,172,4,0,111,3,0,172,4,0,111,3,136,36,4,86,49,3,176,0,0,113,25,0,61,32,83,55,31,52
2017-07-01T23:59:59Z,111,174,160,104,172,110,155,100,99,68,0,0,0,0,0,0,0,174,0,111,0,174,0,111,0,0,0,0,0,0,0,0,43,38,93,33,44,60,83,91,0,58,69,0,174,0,0,111,21,0,84,90,0,59,68,0,174,0,0,111,21,0,171,3,0,109,23,0,174,0,0,111,21,0,42,128,4,30,91,3,174,0,0,111,23,0,174,0,0,111,23,0,0,171,3,0,109,2,0,169,5,0,108,3,134,36,4,84,47,3,174,0,0,111,23,0,60,33,81,54,30,51
2017-07-02T23:59:59Z,113,177,163,106,175,112,158,102,98,68,0,0,0,0,0,0,2,175,1,112,0,177,0,113,0,0,0,0,0,0,0,0,46,39,92,35,46,60,83,94,0,58,71,0,177,0,0,113,22,0,84,92,1,59,70,1,177,0,0,113,22,0,177,0,0,113,22,0,177,0,0,113,22,0,40,132,5,28,94,3,177,0,0,113,24,0,177,0,0,113,24,0,0,174,3,0,111,2,1,172,4,1,111,3,133,40,4,83,50,3,175,2,0,112,25,0,64,32,81,56,31,51
2017-07-03T23:59:59Z,115,182,167,108,180,114,160,104,101,68,0,0,0,0,0,0,2,180,1,114,0,180,0,114,0,0,0,0,0,0,0,0,43,47,92,33,50,60,88,94,0,61,72,0,181,1,0,114,23,0,88,94,0,62,71,0,181,1,0,114,23,0,178,4,0,111,25,0,180,2,0,114,24,0,43,134,5,29,96,3,179,2,1,114,26,1,182,0,0,115,24,0,0,179,3,0,113,2,1,178,3,1,113,2,135,43,4,83,52,3,181,1,0,115,25,0,66,35,81,57,32,51
2017-07-04T23:59:59Z,113,179,164,106,177,112,157,102,94,65,0,0,0,0,0,0,2,177,1,112,0,179,0,113,0,0,0,0,0,0,0,0,45,43,91,35,48,59,88,91,0,61,69,0,178,1,0,113,22,0,89,90,0,62,68,0,179,0,0,113,21,0,174,5,0,110,24,0,178,1,0,113,22,0,45,131,3,30,93,2,179,0,0,113,23,0,179,0,0,113,23,0,0,175,4,0,111,3,0,175,4,0,111,3,133,42,4,82,50,3,179,0,0,113,23,0,66,33,80,57,31,50
2017-07-05T23:59:59Z,114,179,164,107,176,113,157,102,91,62,0,0,0,0,0,0,2,177,1,113,0,179,0,114,0,0,0,0,0,0,0,0,44,46,89,34,50,58,88,91,0,61,70,0,178,1,0,113,22,0,89,90,0,62,69,0,177,2,0,112,23,0,176,3,0,111,24,0,177,2,0,112,23,0,42,132,5,29,94,3,178,1,0,113,24,0,179,0,0,114,23,0,1,175,3,1,112,2,1,175,3,1,112,2,130,45,4,81,52,3,177,2,0,112,25,0,68,33,78,58,32,49
2017-07-06T23:59:58Z,111,177,162,104,174,110,151,100,91,62,0,0,0,0,0,0,2,175,1,110,0,175,0,110,0,0,0,0,0,0,0,0,44,47,86,34,47,56,88,88,1,60,68,1,177,0,0,111,20,0,91,86,0,62,66,0,177,0,0,111,20,0,176,1,0,111,20,0,177,0,0,111,20,0,45,128,4,30,90,3,177,0,0,111,22,0,177,0,0,111,22,0,0,174,3,0,109,2,1,172,4,1,108,3,129,44,4,80,49,3,177,0,0,111,22,0,69,32,76,57,30,48
2017-07-07T23:59:59Z,112,177,161,105,174,111,156,102,89,63,0,0,0,0,0,0,2,175,1,111,0,174,0,111,0,0,0,0,0,0,0,0,46,46,84,36,47,55,91,84,1,64,66,1,176,0,0,112,19,0,91,85,0,63,66,0,177,0,0,112,19,0,177,0,0,112,19,0,177,0,0,112,19,0,47,127,3,32,91,2,177,0,0,112,21,0,177,0,0,112,21,0,2,172,3,2,110,2,1,173,3,1,110,2,129,43,4,81,48,3,176,0,0,112,21,0,69,33,74,59,31,47
2017-07-08T23:59:59Z,109,174,159,102,172,108,154,99,91,61,0,0,0,0,0,0,2,172,1,108,0,174,0,109,0,0,0,0,0,0,0,0,45,44,85,35,45,55,86,88,0,60,67,0,174,0,0,109,19,0,89,85,0,61,65,0,174,0,0,109,19,0,174,0,0,109,19,0,174,0,0,109,19,0,45,126,3,30,89,2,174,0,0,109,21,0,174,0,0,109,21,0,1,170,3,1,107,2,2,169,3,1,107,2,127,42,5,79,47,4,174,0,0,109,21,0,66,32,76,56,30,48
2017-07-09T23:59:59Z,114,180,164,107,177,113,158,103,96,65,0,0,0,0,0,0,3,177,2,113,0,177,0,113,0,0,0,0,0,0,0,0,47,43,90,36,46,59,89,91,0,62,69,0,179,1,0,113,20,0,88,91,1,61,69,1,179,1,0,113,19,0,179,1,0,113,19,0,179,1,0,113,19,0,41,134,5,29,94,4,180,0,0,114,21,0,180,0,0,114,21,0,0,176,4,0,112,3,0,176,4,0,112,3,130,45,4,82,49,3,176,3,0,112,22,0,70,33,77,60,29,48
2017-07-10T23:59:59Z,114,180,165,107,178,113,160,103,94,63,0,0,0,0,0,0,2,178,2,113,0,180,0,114,0,0,0,0,0,0,0,0,43,44,93,34,47,60,86,94,0,61,70,0,180,0,0,114,20,0,88,92,0,61,69,0,180,0,0,114,20,0,180,0,0,114,20,0,180,0,0,114,20,0,42,135,3,29,94,2,180,0,0,114,22,0,180,0,0,114,22,0,0,177,3,0,112,2,0,175,5,0,111,3,132,44,4,83,49,3,177,3,0,112,24,0,68,31,81,59,28,50
2017-07-11T23:59:59Z,116,181,166,109,179,115,161,105,97,65,0,0,0,0,0,0,3,178,2,115,0,181,0,116,0,0,0,0,0,0,0,0,45,45,91,36,48,60,88,93,0,62,70,0,178,3,0,113,22,0,88,93,0,61,70,0,178,3,0,113,22,0,178,3,0,113,22,0,178,3,0,113,22,0,42,135,4,29,95,3,180,1,0,115,23,0,181,0,0,116,22,0,0,177,4,0,114,3,0,175,6,0,113,4,131,45,5,83,50,4,179,2,0,115,23,0,68,34,79,60,32,49
2017-07-12T23:59:59Z,112,177,161,105,174,111,157,102,94,64,0,0,0,0,0,0,3,173,2,111,0,175,0,111,0,0,0,0,0,0,0,0,41,47,88,32,48,59,83,92,1,58,69,1,173,3,0,110,21,0,84,90,2,58,68,2,172,3,1,109,21,1,172,3,1,109,21,1,172,3,1,109,21,1,41,129,6,28,91,5,174,1,1,110,22,1,177,0,0,112,21,0,0,172,5,0,110,4,0,173,4,0,110,3,128,42,6,81,47,5,174,3,0,110,23,0,65,35,76,56,31,48
2017-07-13T23:59:59Z,114,182,166,107,179,113,161,103,93,64,0,0,0,0,0,0,4,178,3,113,0,178,0,112,0,0,0,0,0,0,0,0,47,45,90,36,47,60,91,91,0,63,69,0,182,0,0,114,19,0,93,88,1,64,66,1,180,2,0,113,20,0,180,2,0,113,20,0,180,2,0,113,20,0,45,133,4,31,92,3,180,2,0,113,22,0,182,0,0,114,21,0,0,178,4,0,112,3,1,177,4,1,112,3,129,48,5,81,50,4,178,4,0,112,23,0,70,35,77,58,31,48
2017-07-14T23:59:59Z,112,176,160,105,174,111,155,101,87,61,0,0,0,0,0,0,3,173,2,111,0,174,1,111,0,0,0,0,0,0,0,0,44,44,88,34,47,59,88,88,0,62,68,1,175,1,0,111,20,1,89,87,0,61,67,1,175,1,0,111,20,1,175,1,0,111,20,1,175,1,0,111,20,1,44,128,4,30,91,4,176,0,0,112,21,1,176,0,0,112,21,1,0,172,4,0,110,4,0,172,4,0,110,4,128,42,6,82,47,6,175,1,0,111,22,0,66,34,76,56,31,48
2017-07-15T23:59:59Z,113,177,161,106,175,112,156,102,89,61,0,0,0,0,0,0,3,174,2,112,0,175,0,112,0,0,0,0,0,0,0,0,44,47,86,34,48,58,90,87,0,63,67,0,176,1,0,112,20,0,91,86,0,63,66,0,176,1,0,112,20,0,176,1,0,112,20,0,176,1,0,112,20,0,43,128,6,30,91,4,177,0,0,113,21,0,177,0,0,113,21,0,0,173,4,0,111,3,0,173,4,0,111,3,128,43,6,81,48,5,177,0,0,113,21,0,69,32,76,59,29,48
2017-07-16T23:59:59Z,114,179,163,107,177,113,158,103,89,62,0,0,0,0,0,0,3,176,2,113,0,177,0,113,0,0,0,0,0,0,0,0,47,46,86,36,48,58,90,89,0,63,68,0,178,1,0,113,20,0,93,86,0,64,66,0,178,1,0,113,20,0,178,1,0,113,20,0,178,1,0,113,20,0,43,132,4,30,93,3,179,0,0,114,21,0,179,0,0,114,21,0,0,175,4,0,112,3,0,175,4,0,112,3,127,46,6,81,50,5,176,3,0,112,23,0,72,31,76,61,28,48
2017-07-17T23:59:59Z,114,183,168,108,181,113,162,104,96,66,0,0,0,0,0,0,3,180,2,113,0,181,0,113,0,0,0,0,0,0,0,0,45,45,93,35,48,61,90,93,0,62,69,0,183,0,0,114,20,0,90,92,1,62,68,1,183,0,0,114,20,0,183,0,0,114,20,0,183,0,0,114,20,0,40,139,4,28,95,3,183,0,0,114,22,0,183,0,0,114,22,0,1,176,6,1,111,4,0,179,4,0,112,3,130,46,7,81,50,5,182,1,0,113,23,0,68,32,83,58,30,51
2017-07-18T23:59:59Z,117,188,173,111,185,116,169,108,98,66,0,0,0,0,0,0,3,185,2,116,0,188,0,117,0,0,0,0,0,0,0,0,46,47,95,35,49,62,92,96,0,63,71,0,185,3,0,115,22,0,93,95,0,63,70,0,185,3,0,115,22,0,185,3,0,115,22,0,185,3,0,115,22,0,43,139,6,29,96,4,187,1,0,116,23,0,188,0,0,117,23,0,2,182,4,1,114,3,0,184,4,0,115,3,137,46,5,84,51,4,185,3,0,115,24,0,71,34,83,59,31,51
2017-07-19T23:59:59Z,115,183,168,109,181,114,164,106,97,65,0,0,0,0,0,0,2,181,2,114,0,183,0,115,0,0,0,0,0,0,0,0,43,48,92,33,50,60,88,95,0,61,72,0,181,2,0,113,23,0,89,94,0,61,71,0,182,1,0,114,22,0,181,2,0,113,23,0,182,1,0,114,22,0,44,136,3,29,96,2,183,0,0,115,23,0,183,0,0,115,23,0,0,179,4,0,113,3,1,179,3,1,113,2,133,46,4,82,53,3,181,2,0,113,25,0,66,34,83,56,32,51
2017-07-20T23:59:59Z,113,182,167,107,180,112,163,104,95,64,0,0,0,0,0,0,3,179,2,112,0,180,0,112,0,0,0,0,0,0,0,0,44,45,93,34,47,61,87,93,2,60,69,1,182,0,0,113,20,0,88,92,2,60,68,1,182,0,0,113,20,0,182,0,0,113,20,0,182,0,0,113,20,0,44,134,4,29,93,3,182,0,0,113,22,0,182,0,0,113,22,0,0,178,4,0,111,3,0,178,4,0,111,3,131,43,8,81,49,6,180,2,0,112,23,0,68,31,83,57,29,51
2017-07-21T23:59:59Z,114,184,170,108,182,113,166,105,96,64,0,0,0,0,0,0,3,181,2,113,0,184,0,114,0,0,0,0,0,0,0,0,42,49,93,32,48,61,87,97,0,59,71,0,181,3,0,112,22,0,89,95,0,60,69,0,181,3,0,112,22,0,181,3,0,112,22,0,181,3,0,112,22,0,43,137,4,28,94,3,183,1,0,113,23,0,184,0,0,114,24,0,0,180,4,0,112,3,0,179,5,0,112,4,131,48,5,80,52,4,181,3,0,112,24,0,68,33,83,57,30,51
2017-07-22T23:59:59Z,115,186,172,109,183,113,167,105,97,64,0,0,0,0,0,0,2,184,2,114,0,183,0,113,0,0,0,0,0,0,0,0,43,47,96,33,48,62,88,98,0,60,72,0,184,2,0,113,23,0,90,96,0,61,70,0,185,1,0,114,22,0,185,1,0,114,22,0,185,1,0,114,22,0,42,140,4,28,96,3,185,1,0,115,24,0,186,0,0,115,23,0,1,182,3,1,113,2,0,183,3,0,113,2,137,45,4,84,50,3,184,2,0,114,25,0,69,32,85,57,29,52
2017-07-23T23:59:59Z,113,180,166,107,178,112,162,104,98,65,0,0,0,0,0,0,3,177,3,111,0,178,0,112,0,0,0,0,0,0,0,0,42,46,92,32,47,60,84,94,2,59,70,1,178,2,0,111,22,0,86,93,1,59,70,1,178,2,0,111,23,0,179,1,0,112,21,0,178,2,0,111,23,0,41,136,3,27,95,2,179,1,0,112,23,0,180,0,0,113,23,0,1,176,3,1,111,2,0,177,3,0,111,2,132,44,4,81,50,3,179,1,0,112,23,0,65,32,83,56,28,51
2017-07-24T23:59:59Z,113,181,167,107,179,112,163,104,98,66,0,0,0,0,0,0,2,179,2,112,0,179,0,112,0,0,0,0,0,0,0,0,42,47,92,32,47,60,87,94,0,60,70,0,177,4,0,111,23,0,88,93,0,60,69,0,179,2,0,112,22,0,177,4,0,111,23,0,179,2,0,112,22,0,41,137,3,27,95,2,177,4,0,110,26,0,181,0,0,113,22,0,0,178,3,0,111,2,0,178,3,0,111,2,129,48,4,78,53,3,177,3,1,110,24,1,66,32,83,56,28,51
2017-07-25T23:59:59Z,112,181,167,106,179,111,163,103,99,65,0,0,0,0,0,0,3,178,2,111,0,181,0,112,0,0,0,0,0,0,0,0,41,47,93,31,45,61,86,95,0,59,69,0,180,1,0,112,20,0,86,95,0,59,68,0,180,1,0,112,20,0,181,0,0,112,19,0,179,2,0,111,20,0,41,135,5,27,93,4,181,0,0,112,21,0,181,0,0,112,21,0,0,177,4,0,110,3,0,177,4,0,110,3,131,45,5,80,49,4,180,1,0,112,22,0,65,33,83,54,30,51
2017-07-26T23:59:59Z,113,181,167,107,179,112,163,104,95,63,0,0,0,0,0,0,2,179,2,112,0,181,0,113,0,0,0,0,0,0,0,0,42,45,94,32,47,61,85,96,0,59,71,0,180,1,0,112,22,0,87,94,0,59,70,0,180,1,0,112,22,0,180,1,0,112,22,0,180,1,0,112,23,0,41,137,3,27,95,2,181,0,0,113,24,0,181,0,0,113,24,0,0,178,3,0,111,2,0,178,3,0,111,2,134,43,4,82,50,3,181,0,0,113,24,0,65,31,85,56,28,52
2017-07-27T23:59:59Z,116,186,172,110,183,114,167,106,101,67,0,0,0,0,0,0,2,184,2,115,0,183,0,114,0,0,0,0,0,0,0,0,43,47,96,33,49,62,86,100,0,60,73,0,184,2,0,115,23,0,87,99,0,60,72,0,183,3,0,114,25,0,184,2,0,115,22,0,183,3,0,114,24,0,39,144,3,26,99,2,186,0,0,116,25,0,186,0,0,116,25,0,2,181,3,1,113,2,0,181,5,0,113,3,131,51,4,80,56,3,183,3,0,114,27,0,68,32,86,58,28,53
2017-07-28T23:59:59Z,115,185,171,109,183,114,167,106,99,65,0,0,0,0,0,0,3,182,2,114,0,183,0,114,0,0,0,0,0,0,0,0,47,44,94,36,46,61,91,94,0,63,69,0,184,1,0,114,21,0,93,92,0,63,67,0,185,0,0,115,20,0,185,0,0,115,20,0,185,0,0,115,20,0,41,140,4,28,95,3,184,1,0,114,23,0,185,0,0,115,23,0,0,181,4,0,113,3,0,181,4,0,113,3,133,47,5,81,52,4,182,3,0,113,24,0,69,31,85,58,28,52
2017-07-29T23:59:59Z,112,181,168,107,179,111,164,104,93,62,0,0,0,0,0,0,2,179,2,111,0,181,0,112,0,0,0,0,0,0,0,0,44,48,89,33,48,58,85,96,0,59,69,0,180,1,0,112,22,0,86,93,2,59,67,1,181,0,0,112,21,0,178,3,0,111,23,0,178,2,1,110,22,1,40,140,1,26,95,1,181,0,0,112,23,0,181,0,0,112,23,0,0,179,2,0,111,2,0,179,2,0,111,2,129,49,3,78,53,3,181,0,0,112,23,0,67,31,83,56,29,51
2017-07-30T23:59:59Z,114,183,170,109,179,113,165,106,98,66,0,0,0,0,0,0,2,181,2,113,0,179,0,112,0,0,0,0,0,0,0,0,43,49,91,33,51,60,83,100,0,58,72,0,179,4,0,111,25,0,86,97,0,59,70,0,180,3,0,112,24,0,179,4,0,111,25,0,178,5,0,111,26,0,40,142,1,26,97,1,183,0,0,114,24,0,183,0,0,114,24,0,0,180,3,0,112,2,0,181,2,0,113,2,129,52,2,79,56,2,178,5,0,111,28,0,70,29,84,59,27,52
2017-07-31T23:59:59Z,115,184,171,110,182,114,165,106,99,66,0,0,0,0,0,0,1,183,1,115,0,182,0,114,0,0,0,0,0,0,0,0,45,46,93,35,48,61,85,99,0,59,71,0,180,4,0,113,23,0,86,98,0,59,70,0,183,1,0,114,21,0,182,2,0,113,22,0,182,2,0,113,22,0,38,144,2,26,97,2,184,0,0,115,22,0,184,0,0,115,22,0,0,182,2,0,114,2,1,181,2,1,114,2,131,48,5,81,52,4,180,4,0,112,25,0,68,31,85,57,29,52
2017-08-01T23:59:58Z,111,178,165,106,176,110,161,103,95,63,0,0,0,0,0,0,1,177,1,111,0,178,0,111,0,0,0,0,0,0,0,0,43,43,92,33,45,60,81,97,0,57,69,0,177,1,0,110,20,0,85,93,0,58,67,0,176,2,0,110,21,0,176,2,0,109,21,0,177,1,0,110,20,0,40,136,2,26,93,2,176,2,0,109,23,0,178,0,0,111,21,0,2,174,2,1,109,2,0,176,2,0,110,2,129,46,3,78,51,3,176,2,0,110,23,0,63,31,84,53,30,51
2017-08-02T23:59:59Z,112,179,166,107,177,111,161,103,96,64,0,0,0,0,0,0,0,179,1,112,0,175,1,110,0,0,0,0,0,0,0,0,44,44,91,33,46,59,82,95,2,58,69,2,176,3,0,110,22,1,84,95,0,59,69,0,176,3,0,110,23,0,176,3,0,110,22,0,176,3,0,110,22,0,38,140,1,25,96,2,178,1,0,111,23,1,179,0,0,112,24,0,2,176,1,1,110,1,0,178,1,0,111,1,129,48,2,78,53,2,178,1,0,111,22,1,61,34,84,52,32,51
2017-08-03T23:59:59Z,113,179,166,108,177,112,162,105,96,64,0,0,0,0,0,0,1,178,2,113,0,179,1,113,0,0,0,0,0,0,0,0,45,42,92,34,47,60,86,93,0,60,69,1,177,2,0,111,23,1,87,92,0,60,68,0,179,0,0,113,21,0,178,1,0,112,22,0,178,1,0,112,21,0,38,140,1,25,97,2,178,1,0,112,23,1,179,0,0,113,23,0,0,177,2,0,112,2,0,177,2,0,112,2,129,48,2,78,54,2,178,1,0,112,23,1,63,31,85,54,30,51
2017-08-04T23:59:58Z,111,177,164,106,175,110,160,103,98,66,0,0,0,0,0,0,1,176,1,111,0,175,0,110,0,0,0,0,0,0,0,0,42,44,91,32,45,60,84,93,0,58,68,0,176,1,0,110,20,0,87,90,0,59,66,0,176,1,0,110,20,0,176,1,0,110,20,0,177,0,0,111,20,0,39,135,3,26,93,3,176,1,0,110,23,0,177,0,0,111,22,0,0,175,2,0,110,2,0,173,4,0,109,3,128,46,3,78,51,3,176,1,0,110,22,0,63,31,83,53,30,51
2017-08-05T23:59:59Z,109,173,160,104,171,108,156,101,94,63,0,0,0,0,0,0,1,172,1,109,0,173,0,109,0,0,0,0,0,0,0,0,42,40,91,32,43,60,81,92,0,57,67,0,173,0,0,109,20,0,84,89,0,58,65,0,173,0,0,109,19,0,173,0,0,109,20,0,173,0,0,109,20,0,40,131,2,26,91,2,173,0,0,109,21,0,173,0,0,109,22,0,0,171,2,0,108,2,0,169,4,0,107,3,128,42,3,78,49,3,173,0,0,109,22,0,59,31,83,51,29,51
2017-08-06T23:59:59Z,114,181,169,110,179,113,165,107,95,65,0,0,0,0,0,0,2,179,2,113,0,181,0,114,0,0,0,0,0,0,0,0,44,44,93,33,46,62,87,94,0,60,69,0,179,2,0,112,21,0,86,94,1,59,69,1,178,3,0,112,22,0,179,2,0,113,21,0,180,1,0,113,20,0,38,141,2,25,97,2,178,3,0,113,23,0,181,0,0,114,21,0,0,179,2,0,113,2,2,177,2,1,112,2,129,49,3,79,53,3,180,1,0,113,22,0,67,30,84,56,28,52
2017-08-07T23:59:59Z,115,184,171,110,182,114,167,107,100,67,0,0,0,0,0,0,2,182,2,114,0,180,0,113,0,0,0,0,0,0,0,0,42,46,96,32,46,63,86,98,0,60,70,0,182,2,0,114,20,0,88,96,0,61,69,0,180,4,0,113,21,0,179,5,0,113,22,0,180,4,0,113,21,0,38,144,2,25,98,2,184,0,0,115,21,0,184,0,0,115,21,0,0,180,4,0,113,3,1,181,2,1,114,2,130,51,3,80,53,3,176,8,0,111,27,0,67,33,84,55,31,52
2017-08-08T23:59:58Z,113,180,167,108,178,112,162,104,96,67,0,0,0,0,0,0,2,178,2,112,0,180,0,113,0,0,0,0,0,0,0,0,42,44,94,32,45,62,85,95,0,59,69,0,179,1,0,112,20,0,86,94,0,59,68,0,179,1,0,112,20,0,179,1,0,112,20,0,179,1,0,112,20,0,40,138,2,26,95,2,179,1,0,112,22,0,180,0,0,113,22,0,0,178,2,0,112,2,0,178,2,0,112,2,129,47,4,79,52,4,177,3,0,111,22,0,65,31,84,54,29,52
2017-08-09T23:59:59Z,111,178,165,106,176,110,161,103,97,65,0,0,0,0,0,0,2,176,2,110,0,178,0,111,0,0,0,0,0,0,0,0,41,45,92,31,44,61,81,97,0,57,68,0,174,4,0,109,19,0,82,94,2,57,66,1,173,5,0,109,20,0,174,4,0,109,19,0,174,4,0,109,19,0,37,139,2,24,94,2,178,0,0,111,19,0,178,0,0,111,19,0,0,174,4,0,109,3,0,175,3,0,110,3,127,48,3,77,50,3,176,2,0,111,20,0,62,33,83,52,30,51
2017-08-10T23:59:58Z,116,183,170,111,181,115,164,106,97,66,0,0,0,0,0,0,2,181,2,115,0,183,0,116,0,0,0,0,0,0,0,0,43,46,94,33,45,63,84,99,0,58,73,0,180,3,0,113,20,0,88,95,0,60,70,0,180,3,0,113,20,0,180,3,0,113,20,0,180,3,0,113,21,0,38,143,2,25,98,2,183,0,0,116,21,0,183,0,0,116,21,0,0,181,2,0,115,2,0,181,2,0,115,2,129,51,3,79,54,3,175,8,0,110,26,0,67,32,84,57,30,52
2017-08-11T23:59:58Z,112,179,166,107,177,111,162,104,94,63,0,0,0,0,0,0,2,177,2,111,0,177,0,111,0,0,0,0,0,0,0,0,43,44,92,32,44,61,85,94,0,59,67,0,176,3,0,110,19,0,85,94,0,58,67,0,177,2,0,111,19,0,177,2,0,110,19,0,177,2,0,110,19,0,37,140,2,24,95,2,177,2,0,111,20,0,179,0,0,112,19,0,0,177,2,0,111,2,0,177,2,0,111,2,126,50,3,77,51,3,170,9,0,106,24,0,67,31,81,56,28,50
2017-08-12T23:59:59Z,110,176,163,105,174,109,159,102,95,64,0,0,0,0,0,0,2,174,2,109,0,174,0,109,0,0,0,0,0,0,0,0,42,43,91,32,43,60,85,91,0,59,66,0,176,0,0,110,17,0,87,89,0,59,64,0,176,0,0,110,17,0,176,0,0,110,17,0,176,0,0,110,17,0,37,137,2,24,93,2,176,0,0,110,19,0,176,0,0,110,20,0,0,173,3,0,109,3,0,174,2,0,109,2,127,46,3,77,49,3,172,4,0,107,20,0,64,31,81,54,28,50
2017-08-13T23:59:59Z,112,178,165,107,176,111,162,104,97,65,0,0,0,0,0,0,3,175,3,110,0,176,0,111,0,0,0,0,0,0,0,0,45,42,91,34,42,61,83,95,0,58,68,1,177,1,0,111,18,1,88,90,0,61,64,1,177,1,0,111,18,1,176,2,0,111,19,1,177,1,0,111,18,1,38,137,3,25,94,4,176,2,0,111,21,1,178,0,0,112,19,1,0,174,4,0,110,4,0,176,2,0,111,3,129,46,3,78,50,4,174,4,0,109,22,1,66,31,81,56,29,50
2017-08-14T23:59:59Z,113,179,166,108,177,112,163,105,99,66,0,0,0,0,0,0,2,177,2,112,0,179,0,113,0,0,0,0,0,0,0,0,42,42,95,32,45,64,83,94,2,59,69,2,179,0,0,113,20,1,86,93,0,60,68,1,178,1,0,113,21,1,177,2,0,112,22,1,178,1,0,112,21,1,39,138,2,26,96,3,179,0,0,113,22,1,179,0,0,113,22,1,0,175,4,0,111,4,0,177,2,0,112,3,130,46,3,80,52,4,178,1,0,112,22,1,63,32,84,55,30,53
2017-08-15T23:59:59Z,112,178,165,107,176,111,160,104,100,68,0,0,0,0,0,0,2,176,2,111,0,178,0,112,0,0,0,0,0,0,0,0,42,41,95,32,44,65,83,95,0,59,70,1,178,0,0,112,20,1,84,94,0,59,69,1,178,0,0,112,20,1,178,0,0,112,20,1,178,0,0,112,20,1,39,137,2,26,95,3,178,0,0,112,22,1,178,0,0,112,22,1,1,175,2,1,111,3,0,176,2,0,111,3,131,44,3,81,51,4,176,2,0,111,22,1,63,31,84,55,28,53
2017-08-16T23:59:59Z,116,180,167,111,178,115,162,107,101,68,0,0,0,0,0,0,2,178,2,114,0,180,0,116,0,0,0,0,0,0,0,0,45,39,96,34,46,65,82,98,0,60,72,1,179,1,0,115,23,1,84,96,0,60,72,1,179,1,0,115,24,1,179,1,0,115,23,1,179,1,0,115,24,1,39,139,2,26,98,3,180,0,0,116,24,1,180,0,0,116,25,1,0,178,2,0,114,3,0,178,2,0,114,3,133,44,3,82,54,4,180,0,0,116,24,1,62,34,84,58,30,53
2017-08-17T23:59:59Z,116,182,168,110,179,114,161,105,100,68,0,0,0,0,0,0,2,180,2,114,0,182,0,116,0,0,0,0,0,0,0,0,42,46,94,32,48,64,85,97,0,61,71,1,181,1,0,115,21,1,87,94,1,62,69,2,180,2,0,115,22,1,180,2,0,115,22,1,180,2,0,115,22,1,38,142,2,25,99,3,182,0,0,116,23,1,182,0,0,116,23,1,0,180,2,0,114,3,1,179,2,1,114,3,129,50,3,79,55,4,181,1,0,116,24,1,65,33,84,57,31,53